"Sample Date","Sample Time","Sensor Name","Sample Value","Units","Flow Rate","Sample Interval","Sample Volume","Laser Status","Number Channels","Micron Size 0","Counts/Channel 0","Micron Size 1","Counts/Channel 1","Micron Size 2","Counts/Channel 2","Micron Size 3","Counts/Channel 3","Micron Size 4","Counts/Channel 4","Micron Size 5","Counts/Channel 5","Micron Size 6","Counts/Channel 6","Micron Size 7","Counts/Channel 7","Micron Size 8","Counts/Channel 8","Micron Size 9","Counts/Channel 9","Micron Size 10","Counts/Channel 10","Micron Size 11","Counts/Channel 11","Micron Size 12","Counts/Channel 12","Micron Size 13","Counts/Channel 13","Micron Size 14","Counts/Channel 14","Micron Size 15","Counts/Channel 15","Micron Size 16","Counts/Channel 16","Micron Size 17","Counts/Channel 17","Micron Size 18","Counts/Channel 18","Micron Size 19","Counts/Channel 19","Micron Size 20","Counts/Channel 20","Micron Size 21","Counts/Channel 21","Micron Size 22","Counts/Channel 22","Micron Size 23","Counts/Channel 23","Micron Size 24","Counts/Channel 24","Micron Size 25","Counts/Channel 25","Micron Size 26","Counts/Channel 26","Micron Size 27","Counts/Channel 27","Micron Size 28","Counts/Channel 28","Micron Size 29","Counts/Channel 29","Micron Size 30","Counts/Channel 30","Micron Size 31","Counts/Channel 31"
"07/01/06","00:00:04","AMMA06",62833.000,"cc",28284.479,6.00,2828.448,1,6,0.100,34315.000,0.200,22687.000,0.300,4740.000,0.500,670.000,1.000,421.000,5.000,0
"07/01/06","00:00:10","AMMA06",62361.000,"cc",28318.096,6.00,2831.810,1,6,0.100,34424.000,0.200,22398.000,0.300,4510.000,0.500,654.000,1.000,375.000,5.000,0
"07/01/06","00:00:16","AMMA06",62440.000,"cc",28327.969,6.00,2832.797,1,6,0.100,34278.000,0.200,22399.000,0.300,4664.000,0.500,687.000,1.000,411.000,5.000,1.000
"07/01/06","00:00:22","AMMA06",62674.000,"cc",28311.156,6.00,2831.116,1,6,0.100,34284.000,0.200,22586.000,0.300,4732.000,0.500,665.000,1.000,406.000,5.000,1.000
"07/01/06","00:00:28","AMMA06",62441.000,"cc",28342.523,6.00,2834.252,1,6,0.100,34295.000,0.200,22554.000,0.300,4528.000,0.500,653.000,1.000,411.000,5.000,0
"07/01/06","00:00:34","AMMA06",62256.000,"cc",28371.328,6.00,2837.133,1,6,0.100,34174.000,0.200,22411.000,0.300,4610.000,0.500,670.000,1.000,391.000,5.000,0
"07/01/06","00:00:40","AMMA06",61989.000,"cc",28335.453,6.00,2833.545,1,6,0.100,34006.000,0.200,22512.000,0.300,4412.000,0.500,655.000,1.000,404.000,5.000,0
"07/01/06","00:00:46","AMMA06",62384.000,"cc",28316.299,6.00,2831.630,1,6,0.100,34262.000,0.200,22481.000,0.300,4557.000,0.500,637.000,1.000,446.000,5.000,1.000
"07/01/06","00:00:52","AMMA06",62154.000,"cc",28298.207,6.00,2829.821,1,6,0.100,34206.000,0.200,22466.000,0.300,4470.000,0.500,607.000,1.000,405.000,5.000,0
"07/01/06","00:00:58","AMMA06",62426.000,"cc",28323.053,6.00,2832.305,1,6,0.100,34198.000,0.200,22620.000,0.300,4621.000,0.500,606.000,1.000,381.000,5.000,0
"07/01/06","00:01:04","AMMA06",62652.000,"cc",28298.631,6.00,2829.863,1,6,0.100,34616.000,0.200,22466.000,0.300,4537.000,0.500,625.000,1.000,407.000,5.000,1.000
"07/01/06","00:01:10","AMMA06",62641.000,"cc",28336.717,6.00,2833.672,1,6,0.100,34502.000,0.200,22521.000,0.300,4546.000,0.500,655.000,1.000,416.000,5.000,1.000
"07/01/06","00:01:16","AMMA06",62549.000,"cc",28309.244,6.00,2830.925,1,6,0.100,34286.000,0.200,22671.000,0.300,4552.000,0.500,644.000,1.000,396.000,5.000,0
"07/01/06","00:01:22","AMMA06",62826.000,"cc",28303.250,6.00,2830.325,1,6,0.100,34629.000,0.200,22601.000,0.300,4612.000,0.500,624.000,1.000,360.000,5.000,0
"07/01/06","00:01:28","AMMA06",62193.000,"cc",28322.879,6.00,2832.288,1,6,0.100,34353.000,0.200,22369.000,0.300,4505.000,0.500,568.000,1.000,396.000,5.000,2.000
"07/01/06","00:01:34","AMMA06",62128.000,"cc",28307.182,6.00,2830.718,1,6,0.100,34420.000,0.200,22304.000,0.300,4366.000,0.500,637.000,1.000,400.000,5.000,1.000
"07/01/06","00:01:40","AMMA06",62324.000,"cc",28363.836,6.00,2836.384,1,6,0.100,34457.000,0.200,22243.000,0.300,4590.000,0.500,627.000,1.000,407.000,5.000,0
"07/01/06","00:01:46","AMMA06",62263.000,"cc",28280.066,6.00,2828.007,1,6,0.100,34412.000,0.200,22343.000,0.300,4444.000,0.500,659.000,1.000,405.000,5.000,0
"07/01/06","00:01:52","AMMA06",62193.000,"cc",28327.400,6.00,2832.740,1,6,0.100,34426.000,0.200,22282.000,0.300,4496.000,0.500,622.000,1.000,367.000,5.000,0
"07/01/06","00:01:58","AMMA06",62167.000,"cc",28247.596,6.00,2824.760,1,6,0.100,34463.000,0.200,22133.000,0.300,4488.000,0.500,661.000,1.000,421.000,5.000,1.000
"07/01/06","00:02:04","AMMA06",62547.000,"cc",28325.807,6.00,2832.581,1,6,0.100,34401.000,0.200,22703.000,0.300,4445.000,0.500,606.000,1.000,392.000,5.000,0
"07/01/06","00:02:10","AMMA06",62305.000,"cc",28341.391,6.00,2834.139,1,6,0.100,34353.000,0.200,22402.000,0.300,4525.000,0.500,612.000,1.000,413.000,5.000,0
"07/01/06","00:02:16","AMMA06",62837.000,"cc",28296.430,6.00,2829.643,1,6,0.100,34741.000,0.200,22570.000,0.300,4478.000,0.500,618.000,1.000,429.000,5.000,1.000
"07/01/06","00:02:22","AMMA06",62183.000,"cc",28305.104,6.00,2830.511,1,6,0.100,34492.000,0.200,22312.000,0.300,4413.000,0.500,596.000,1.000,370.000,5.000,0
"07/01/06","00:02:28","AMMA06",62487.000,"cc",28337.340,6.00,2833.734,1,6,0.100,34617.000,0.200,22406.000,0.300,4481.000,0.500,599.000,1.000,384.000,5.000,0
"07/01/06","00:02:34","AMMA06",62134.000,"cc",28311.754,6.00,2831.176,1,6,0.100,34363.000,0.200,22294.000,0.300,4440.000,0.500,644.000,1.000,393.000,5.000,0
"07/01/06","00:02:40","AMMA06",62449.000,"cc",28304.422,6.00,2830.442,1,6,0.100,34281.000,0.200,22699.000,0.300,4478.000,0.500,626.000,1.000,363.000,5.000,2.000
"07/01/06","00:02:46","AMMA06",62166.000,"cc",28342.578,6.00,2834.258,1,6,0.100,34305.000,0.200,22479.000,0.300,4362.000,0.500,632.000,1.000,387.000,5.000,1.000
"07/01/06","00:02:52","AMMA06",62482.000,"cc",28324.463,6.00,2832.447,1,6,0.100,34459.000,0.200,22531.000,0.300,4518.000,0.500,604.000,1.000,370.000,5.000,0
"07/01/06","00:02:58","AMMA06",62379.000,"cc",28306.773,6.00,2830.678,1,6,0.100,34199.000,0.200,22466.000,0.300,4640.000,0.500,647.000,1.000,427.000,5.000,0
"07/01/06","00:03:04","AMMA06",63054.000,"cc",28293.121,6.00,2829.312,1,6,0.100,34933.000,0.200,22566.000,0.300,4539.000,0.500,630.000,1.000,385.000,5.000,1.000
"07/01/06","00:03:10","AMMA06",62678.000,"cc",28310.658,6.00,2831.066,1,6,0.100,34363.000,0.200,22576.000,0.300,4695.000,0.500,640.000,1.000,404.000,5.000,0
"07/01/06","00:03:16","AMMA06",62642.000,"cc",28345.371,6.00,2834.537,1,6,0.100,34166.000,0.200,22902.000,0.300,4564.000,0.500,627.000,1.000,383.000,5.000,0
"07/01/06","00:03:22","AMMA06",62660.000,"cc",28357.500,6.00,2835.750,1,6,0.100,34343.000,0.200,22637.000,0.300,4671.000,0.500,638.000,1.000,371.000,5.000,0
"07/01/06","00:03:28","AMMA06",62382.000,"cc",28301.285,6.00,2830.129,1,6,0.100,34079.000,0.200,22662.000,0.300,4632.000,0.500,609.000,1.000,400.000,5.000,0
"07/01/06","00:03:34","AMMA06",62312.000,"cc",28292.906,6.00,2829.291,1,6,0.100,34251.000,0.200,22458.000,0.300,4532.000,0.500,652.000,1.000,418.000,5.000,1.000
"07/01/06","00:03:40","AMMA06",62715.000,"cc",28284.713,6.00,2828.471,1,6,0.100,34167.000,0.200,22849.000,0.300,4659.000,0.500,623.000,1.000,417.000,5.000,0
"07/01/06","00:03:46","AMMA06",63011.000,"cc",28316.100,6.00,2831.610,1,6,0.100,34522.000,0.200,22734.000,0.300,4709.000,0.500,639.000,1.000,407.000,5.000,0
"07/01/06","00:03:52","AMMA06",62586.000,"cc",28314.928,6.00,2831.493,1,6,0.100,34236.000,0.200,22550.000,0.300,4725.000,0.500,639.000,1.000,435.000,5.000,1.000
"07/01/06","00:03:58","AMMA06",62856.000,"cc",28332.984,6.00,2833.299,1,6,0.100,34472.000,0.200,22669.000,0.300,4711.000,0.500,623.000,1.000,381.000,5.000,0
"07/01/06","00:04:04","AMMA06",62989.000,"cc",28318.807,6.00,2831.881,1,6,0.100,34535.000,0.200,22733.000,0.300,4687.000,0.500,659.000,1.000,375.000,5.000,0
"07/01/06","00:04:10","AMMA06",62500.000,"cc",28327.617,6.00,2832.762,1,6,0.100,34346.000,0.200,22600.000,0.300,4561.000,0.500,575.000,1.000,418.000,5.000,0
"07/01/06","00:04:16","AMMA06",63194.000,"cc",28290.082,6.00,2829.008,1,6,0.100,34602.000,0.200,22781.000,0.300,4759.000,0.500,637.000,1.000,415.000,5.000,0
"07/01/06","00:04:22","AMMA06",62671.000,"cc",28326.854,6.00,2832.686,1,6,0.100,34285.000,0.200,22736.000,0.300,4536.000,0.500,671.000,1.000,442.000,5.000,1.000
"07/01/06","00:04:28","AMMA06",62908.000,"cc",28311.285,6.00,2831.129,1,6,0.100,34470.000,0.200,22843.000,0.300,4595.000,0.500,600.000,1.000,399.000,5.000,1.000
"07/01/06","00:04:34","AMMA06",62113.000,"cc",28346.053,6.00,2834.606,1,6,0.100,34130.000,0.200,22408.000,0.300,4561.000,0.500,611.000,1.000,403.000,5.000,0
"07/01/06","00:04:40","AMMA06",62644.000,"cc",28265.043,6.00,2826.504,1,6,0.100,34305.000,0.200,22475.000,0.300,4839.000,0.500,623.000,1.000,402.000,5.000,0
"07/01/06","00:04:46","AMMA06",62534.000,"cc",28316.219,6.00,2831.622,1,6,0.100,34258.000,0.200,22698.000,0.300,4539.000,0.500,611.000,1.000,428.000,5.000,0
"07/01/06","00:04:52","AMMA06",63058.000,"cc",28324.129,6.00,2832.413,1,6,0.100,34458.000,0.200,22820.000,0.300,4708.000,0.500,672.000,1.000,398.000,5.000,2.000
"07/01/06","00:04:58","AMMA06",62693.000,"cc",28349.018,6.00,2834.902,1,6,0.100,34357.000,0.200,22656.000,0.300,4600.000,0.500,676.000,1.000,404.000,5.000,0
"07/01/06","00:05:04","AMMA06",62344.000,"cc",28321.238,6.00,2832.124,1,6,0.100,34018.000,0.200,22689.000,0.300,4588.000,0.500,636.000,1.000,412.000,5.000,1.000
"07/01/06","00:05:10","AMMA06",62803.000,"cc",28292.719,6.00,2829.272,1,6,0.100,34663.000,0.200,22602.000,0.300,4484.000,0.500,682.000,1.000,372.000,5.000,0
"07/01/06","00:05:16","AMMA06",62479.000,"cc",28338.486,6.00,2833.849,1,6,0.100,34504.000,0.200,22366.000,0.300,4587.000,0.500,618.000,1.000,404.000,5.000,0
"07/01/06","00:05:22","AMMA06",62729.000,"cc",28348.854,6.00,2834.886,1,6,0.100,34662.000,0.200,22592.000,0.300,4431.000,0.500,654.000,1.000,390.000,5.000,0
"07/01/06","00:05:28","AMMA06",62304.000,"cc",28305.037,6.00,2830.504,1,6,0.100,34359.000,0.200,22384.000,0.300,4536.000,0.500,637.000,1.000,388.000,5.000,0
"07/01/06","00:05:34","AMMA06",62750.000,"cc",28306.732,6.00,2830.673,1,6,0.100,34576.000,0.200,22506.000,0.300,4646.000,0.500,629.000,1.000,393.000,5.000,0
"07/01/06","00:05:40","AMMA06",62446.000,"cc",28300.973,6.00,2830.097,1,6,0.100,34539.000,0.200,22306.000,0.300,4554.000,0.500,634.000,1.000,413.000,5.000,0
"07/01/06","00:05:46","AMMA06",62467.000,"cc",28282.725,6.00,2828.273,1,6,0.100,34569.000,0.200,22297.000,0.300,4559.000,0.500,649.000,1.000,392.000,5.000,1.000
"07/01/06","00:05:52","AMMA06",62464.000,"cc",28381.900,6.00,2838.190,1,6,0.100,34830.000,0.200,22072.000,0.300,4518.000,0.500,639.000,1.000,404.000,5.000,1.000
"07/01/06","00:05:58","AMMA06",62183.000,"cc",28316.357,6.00,2831.636,1,6,0.100,34389.000,0.200,22425.000,0.300,4345.000,0.500,649.000,1.000,375.000,5.000,0
"07/01/06","00:06:04","AMMA06",62437.000,"cc",28304.117,6.00,2830.412,1,6,0.100,34616.000,0.200,22367.000,0.300,4415.000,0.500,614.000,1.000,425.000,5.000,0
"07/01/06","00:06:10","AMMA06",62373.000,"cc",28284.303,6.00,2828.430,1,6,0.100,34708.000,0.200,22192.000,0.300,4486.000,0.500,616.000,1.000,370.000,5.000,1.000
"07/01/06","00:06:16","AMMA06",62171.000,"cc",28371.527,6.00,2837.153,1,6,0.100,34312.000,0.200,22388.000,0.300,4483.000,0.500,640.000,1.000,347.000,5.000,1.000
"07/01/06","00:06:22","AMMA06",62368.000,"cc",28317.285,6.00,2831.729,1,6,0.100,34644.000,0.200,22251.000,0.300,4422.000,0.500,645.000,1.000,406.000,5.000,0
"07/01/06","00:06:28","AMMA06",62274.000,"cc",28291.170,6.00,2829.117,1,6,0.100,34731.000,0.200,22022.000,0.300,4525.000,0.500,631.000,1.000,364.000,5.000,1.000
"07/01/06","00:06:34","AMMA06",62198.000,"cc",28318.174,6.00,2831.818,1,6,0.100,34489.000,0.200,22345.000,0.300,4289.000,0.500,672.000,1.000,403.000,5.000,0
"07/01/06","00:06:40","AMMA06",62438.000,"cc",28324.363,6.00,2832.437,1,6,0.100,34689.000,0.200,22294.000,0.300,4393.000,0.500,653.000,1.000,409.000,5.000,0
"07/01/06","00:06:46","AMMA06",62134.000,"cc",28285.260,6.00,2828.526,1,6,0.100,34402.000,0.200,22148.000,0.300,4556.000,0.500,611.000,1.000,417.000,5.000,0
"07/01/06","00:06:52","AMMA06",62424.000,"cc",28312.986,6.00,2831.299,1,6,0.100,34443.000,0.200,22450.000,0.300,4502.000,0.500,635.000,1.000,392.000,5.000,2.000
"07/01/06","00:06:58","AMMA06",62480.000,"cc",28327.045,6.00,2832.705,1,6,0.100,34553.000,0.200,22416.000,0.300,4528.000,0.500,602.000,1.000,380.000,5.000,1.000
"07/01/06","00:07:04","AMMA06",62331.000,"cc",28350.398,6.00,2835.040,1,6,0.100,34502.000,0.200,22319.000,0.300,4497.000,0.500,632.000,1.000,380.000,5.000,1.000
"07/01/06","00:07:10","AMMA06",62417.000,"cc",28287.420,6.00,2828.742,1,6,0.100,34454.000,0.200,22334.000,0.300,4601.000,0.500,630.000,1.000,398.000,5.000,0
"07/01/06","00:07:16","AMMA06",62759.000,"cc",28371.775,6.00,2837.178,1,6,0.100,34592.000,0.200,22610.000,0.300,4496.000,0.500,684.000,1.000,377.000,5.000,0
"07/01/06","00:07:22","AMMA06",62957.000,"cc",28313.422,6.00,2831.342,1,6,0.100,34685.000,0.200,22689.000,0.300,4532.000,0.500,664.000,1.000,387.000,5.000,0
"07/01/06","00:07:28","AMMA06",62459.000,"cc",28293.541,6.00,2829.354,1,6,0.100,34506.000,0.200,22372.000,0.300,4525.000,0.500,622.000,1.000,433.000,5.000,1.000
"07/01/06","00:07:34","AMMA06",62683.000,"cc",28292.166,6.00,2829.217,1,6,0.100,34661.000,0.200,22496.000,0.300,4536.000,0.500,597.000,1.000,393.000,5.000,0
"07/01/06","00:07:40","AMMA06",62507.000,"cc",28352.025,6.00,2835.203,1,6,0.100,34548.000,0.200,22500.000,0.300,4402.000,0.500,646.000,1.000,408.000,5.000,3.000
"07/01/06","00:07:46","AMMA06",62734.000,"cc",28334.441,6.00,2833.444,1,6,0.100,34645.000,0.200,22520.000,0.300,4505.000,0.500,658.000,1.000,405.000,5.000,1.000
"07/01/06","00:07:52","AMMA06",62346.000,"cc",28305.902,6.00,2830.590,1,6,0.100,34394.000,0.200,22274.000,0.300,4576.000,0.500,703.000,1.000,399.000,5.000,0
"07/01/06","00:07:58","AMMA06",62341.000,"cc",28294.346,6.00,2829.435,1,6,0.100,34572.000,0.200,22111.000,0.300,4613.000,0.500,632.000,1.000,412.000,5.000,1.000
"07/01/06","00:08:04","AMMA06",62460.000,"cc",28307.051,6.00,2830.705,1,6,0.100,34724.000,0.200,22212.000,0.300,4518.000,0.500,618.000,1.000,388.000,5.000,0
"07/01/06","00:08:10","AMMA06",62471.000,"cc",28376.094,6.00,2837.610,1,6,0.100,34336.000,0.200,22601.000,0.300,4482.000,0.500,655.000,1.000,397.000,5.000,0
"07/01/06","00:08:16","AMMA06",62276.000,"cc",28305.604,6.00,2830.561,1,6,0.100,34174.000,0.200,22481.000,0.300,4612.000,0.500,590.000,1.000,417.000,5.000,2.000
"07/01/06","00:08:22","AMMA06",62720.000,"cc",28301.412,6.00,2830.141,1,6,0.100,34745.000,0.200,22427.000,0.300,4484.000,0.500,623.000,1.000,441.000,5.000,0
"07/01/06","00:08:28","AMMA06",62205.000,"cc",28278.988,6.00,2827.899,1,6,0.100,34316.000,0.200,22359.000,0.300,4500.000,0.500,610.000,1.000,419.000,5.000,1.000
"07/01/06","00:08:34","AMMA06",62287.000,"cc",28349.256,6.00,2834.926,1,6,0.100,34366.000,0.200,22287.000,0.300,4628.000,0.500,623.000,1.000,382.000,5.000,1.000
"07/01/06","00:08:40","AMMA06",62256.000,"cc",28352.234,6.00,2835.224,1,6,0.100,34008.000,0.200,22638.000,0.300,4617.000,0.500,609.000,1.000,384.000,5.000,0
"07/01/06","00:08:46","AMMA06",61950.000,"cc",28332.469,6.00,2833.247,1,6,0.100,33871.000,0.200,22297.000,0.300,4753.000,0.500,647.000,1.000,382.000,5.000,0
"07/01/06","00:08:52","AMMA06",62425.000,"cc",28304.121,6.00,2830.412,1,6,0.100,34363.000,0.200,22399.000,0.300,4644.000,0.500,638.000,1.000,381.000,5.000,0
"07/01/06","00:08:58","AMMA06",62317.000,"cc",28310.748,6.00,2831.075,1,6,0.100,34516.000,0.200,22132.000,0.300,4619.000,0.500,648.000,1.000,401.000,5.000,1.000
"07/01/06","00:09:04","AMMA06",62223.000,"cc",28286.484,6.00,2828.649,1,6,0.100,34161.000,0.200,22558.000,0.300,4498.000,0.500,590.000,1.000,416.000,5.000,0
"07/01/06","00:09:10","AMMA06",62568.000,"cc",28281.881,6.00,2828.188,1,6,0.100,34500.000,0.200,22448.000,0.300,4595.000,0.500,637.000,1.000,387.000,5.000,1.000
"07/01/06","00:09:16","AMMA06",62843.000,"cc",28324.920,6.00,2832.492,1,6,0.100,34598.000,0.200,22633.000,0.300,4593.000,0.500,610.000,1.000,408.000,5.000,1.000
"07/01/06","00:09:22","AMMA06",62932.000,"cc",28356.541,6.00,2835.654,1,6,0.100,34891.000,0.200,22406.000,0.300,4584.000,0.500,627.000,1.000,424.000,5.000,0
"07/01/06","00:09:28","AMMA06",62249.000,"cc",28299.869,6.00,2829.987,1,6,0.100,34372.000,0.200,22364.000,0.300,4488.000,0.500,656.000,1.000,369.000,5.000,0
"07/01/06","00:09:34","AMMA06",62478.000,"cc",28298.441,6.00,2829.844,1,6,0.100,34664.000,0.200,22264.000,0.300,4501.000,0.500,659.000,1.000,390.000,5.000,0
"07/01/06","00:09:40","AMMA06",62314.000,"cc",28274.883,6.00,2827.489,1,6,0.100,34330.000,0.200,22500.000,0.300,4470.000,0.500,644.000,1.000,369.000,5.000,1.000
"07/01/06","00:09:46","AMMA06",62329.000,"cc",28332.201,6.00,2833.220,1,6,0.100,34527.000,0.200,22255.000,0.300,4512.000,0.500,630.000,1.000,405.000,5.000,0
"07/01/06","00:09:52","AMMA06",62474.000,"cc",28328.813,6.00,2832.881,1,6,0.100,34468.000,0.200,22507.000,0.300,4480.000,0.500,611.000,1.000,408.000,5.000,0
"07/01/06","00:09:58","AMMA06",62150.000,"cc",28329.213,6.00,2832.921,1,6,0.100,34438.000,0.200,22238.000,0.300,4440.000,0.500,625.000,1.000,409.000,5.000,0
"07/01/06","00:10:04","AMMA06",62390.000,"cc",28355.815,6.00,2835.582,1,6,0.100,35019.000,0.200,21904.000,0.300,4476.000,0.500,604.000,1.000,387.000,5.000,0
"07/01/06","00:10:10","AMMA06",62219.000,"cc",28327.359,6.00,2832.736,1,6,0.100,34628.000,0.200,22150.000,0.300,4418.000,0.500,634.000,1.000,388.000,5.000,1.000
"07/01/06","00:10:16","AMMA06",62098.000,"cc",28245.309,6.00,2824.531,1,6,0.100,34600.000,0.200,22026.000,0.300,4435.000,0.500,636.000,1.000,401.000,5.000,0
"07/01/06","00:10:22","AMMA06",62355.000,"cc",28332.461,6.00,2833.246,1,6,0.100,34759.000,0.200,22170.000,0.300,4360.000,0.500,637.000,1.000,429.000,5.000,0
"07/01/06","00:10:28","AMMA06",62163.000,"cc",28328.512,6.00,2832.851,1,6,0.100,34607.000,0.200,22178.000,0.300,4362.000,0.500,628.000,1.000,388.000,5.000,0
"07/01/06","00:10:34","AMMA06",62388.000,"cc",28295.072,6.00,2829.507,1,6,0.100,34563.000,0.200,22279.000,0.300,4477.000,0.500,641.000,1.000,428.000,5.000,0
"07/01/06","00:10:40","AMMA06",62731.000,"cc",28266.768,6.00,2826.677,1,6,0.100,34709.000,0.200,22487.000,0.300,4474.000,0.500,628.000,1.000,433.000,5.000,0
"07/01/06","00:10:46","AMMA06",62780.000,"cc",28352.744,6.00,2835.275,1,6,0.100,34808.000,0.200,22518.000,0.300,4466.000,0.500,599.000,1.000,388.000,5.000,1.000
"07/01/06","00:10:52","AMMA06",62594.000,"cc",28331.488,6.00,2833.149,1,6,0.100,34802.000,0.200,22207.000,0.300,4568.000,0.500,630.000,1.000,386.000,5.000,1.000
"07/01/06","00:10:58","AMMA06",62153.000,"cc",28328.232,6.00,2832.824,1,6,0.100,34660.000,0.200,21983.000,0.300,4424.000,0.500,652.000,1.000,434.000,5.000,0
"07/01/06","00:11:04","AMMA06",62543.000,"cc",28335.332,6.00,2833.533,1,6,0.100,34705.000,0.200,22309.000,0.300,4453.000,0.500,647.000,1.000,429.000,5.000,0
"07/01/06","00:11:10","AMMA06",62585.000,"cc",28321.158,6.00,2832.116,1,6,0.100,35094.000,0.200,22147.000,0.300,4311.000,0.500,645.000,1.000,387.000,5.000,1.000
"07/01/06","00:11:16","AMMA06",62312.000,"cc",28306.609,6.00,2830.661,1,6,0.100,34663.000,0.200,22282.000,0.300,4375.000,0.500,606.000,1.000,386.000,5.000,0
"07/01/06","00:11:22","AMMA06",62562.000,"cc",28256.863,6.00,2825.687,1,6,0.100,34951.000,0.200,22192.000,0.300,4417.000,0.500,610.000,1.000,392.000,5.000,0
"07/01/06","00:11:28","AMMA06",62751.000,"cc",28296.176,6.00,2829.618,1,6,0.100,35282.000,0.200,22102.000,0.300,4341.000,0.500,625.000,1.000,400.000,5.000,1.000
"07/01/06","00:11:34","AMMA06",62304.000,"cc",28345.898,6.00,2834.590,1,6,0.100,35058.000,0.200,21752.000,0.300,4447.000,0.500,628.000,1.000,419.000,5.000,0
"07/01/06","00:11:40","AMMA06",62456.000,"cc",28326.631,6.00,2832.663,1,6,0.100,34812.000,0.200,22222.000,0.300,4416.000,0.500,636.000,1.000,370.000,5.000,0
"07/01/06","00:11:46","AMMA06",62312.000,"cc",28323.270,6.00,2832.327,1,6,0.100,34791.000,0.200,22233.000,0.300,4257.000,0.500,616.000,1.000,415.000,5.000,0
"07/01/06","00:11:52","AMMA06",62494.000,"cc",28303.734,6.00,2830.374,1,6,0.100,34935.000,0.200,22188.000,0.300,4346.000,0.500,598.000,1.000,427.000,5.000,0
"07/01/06","00:11:58","AMMA06",62388.000,"cc",28358.522,6.00,2835.852,1,6,0.100,35020.000,0.200,21945.000,0.300,4384.000,0.500,648.000,1.000,391.000,5.000,0
"07/01/06","00:12:04","AMMA06",61961.000,"cc",28373.076,6.00,2837.308,1,6,0.100,34777.000,0.200,21804.000,0.300,4413.000,0.500,581.000,1.000,385.000,5.000,1.000
"07/01/06","00:12:10","AMMA06",62056.000,"cc",28309.229,6.00,2830.923,1,6,0.100,34701.000,0.200,22018.000,0.300,4290.000,0.500,641.000,1.000,406.000,5.000,0
"07/01/06","00:12:16","AMMA06",62070.000,"cc",28297.924,6.00,2829.793,1,6,0.100,34557.000,0.200,22108.000,0.300,4358.000,0.500,642.000,1.000,405.000,5.000,0
"07/01/06","00:12:22","AMMA06",62569.000,"cc",28304.881,6.00,2830.488,1,6,0.100,35016.000,0.200,22066.000,0.300,4408.000,0.500,687.000,1.000,392.000,5.000,0
"07/01/06","00:12:28","AMMA06",62271.000,"cc",28299.512,6.00,2829.951,1,6,0.100,34705.000,0.200,22061.000,0.300,4465.000,0.500,614.000,1.000,426.000,5.000,0
"07/01/06","00:12:34","AMMA06",62024.000,"cc",28307.166,6.00,2830.717,1,6,0.100,34749.000,0.200,21890.000,0.300,4347.000,0.500,656.000,1.000,382.000,5.000,0
"07/01/06","00:12:40","AMMA06",62301.000,"cc",28344.422,6.00,2834.442,1,6,0.100,34915.000,0.200,21935.000,0.300,4460.000,0.500,596.000,1.000,394.000,5.000,1.000
"07/01/06","00:12:46","AMMA06",62212.000,"cc",28325.084,6.00,2832.509,1,6,0.100,34731.000,0.200,22095.000,0.300,4376.000,0.500,614.000,1.000,396.000,5.000,0
"07/01/06","00:12:52","AMMA06",62383.000,"cc",28247.547,6.00,2824.755,1,6,0.100,34663.000,0.200,22149.000,0.300,4522.000,0.500,617.000,1.000,432.000,5.000,0
"07/01/06","00:12:58","AMMA06",62731.000,"cc",28316.414,6.00,2831.642,1,6,0.100,34800.000,0.200,22393.000,0.300,4583.000,0.500,597.000,1.000,356.000,5.000,2.000
"07/01/06","00:13:04","AMMA06",62699.000,"cc",28315.525,6.00,2831.553,1,6,0.100,34891.000,0.200,22292.000,0.300,4437.000,0.500,635.000,1.000,444.000,5.000,0
"07/01/06","00:13:10","AMMA06",62170.000,"cc",28324.463,6.00,2832.447,1,6,0.100,34301.000,0.200,22252.000,0.300,4558.000,0.500,659.000,1.000,399.000,5.000,1.000
"07/01/06","00:13:16","AMMA06",62259.000,"cc",28356.410,6.00,2835.641,1,6,0.100,34848.000,0.200,21997.000,0.300,4404.000,0.500,631.000,1.000,378.000,5.000,1.000
"07/01/06","00:13:22","AMMA06",62548.000,"cc",28291.328,6.00,2829.133,1,6,0.100,34469.000,0.200,22466.000,0.300,4580.000,0.500,621.000,1.000,411.000,5.000,1.000
"07/01/06","00:13:28","AMMA06",62676.000,"cc",28334.473,6.00,2833.448,1,6,0.100,34667.000,0.200,22279.000,0.300,4662.000,0.500,637.000,1.000,431.000,5.000,0
"07/01/06","00:13:34","AMMA06",62266.000,"cc",28330.037,6.00,2833.004,1,6,0.100,34457.000,0.200,22121.000,0.300,4644.000,0.500,632.000,1.000,411.000,5.000,1.000
"07/01/06","00:13:40","AMMA06",62971.000,"cc",28302.904,6.00,2830.291,1,6,0.100,34811.000,0.200,22409.000,0.300,4682.000,0.500,651.000,1.000,417.000,5.000,1.000
"07/01/06","00:13:46","AMMA06",62352.000,"cc",28278.617,6.00,2827.862,1,6,0.100,34284.000,0.200,22389.000,0.300,4688.000,0.500,593.000,1.000,398.000,5.000,0
"07/01/06","00:13:52","AMMA06",62662.000,"cc",28301.871,6.00,2830.187,1,6,0.100,34470.000,0.200,22530.000,0.300,4620.000,0.500,621.000,1.000,421.000,5.000,0
"07/01/06","00:13:58","AMMA06",63077.000,"cc",28341.850,6.00,2834.185,1,6,0.100,34835.000,0.200,22593.000,0.300,4559.000,0.500,650.000,1.000,440.000,5.000,0
"07/01/06","00:14:04","AMMA06",62842.000,"cc",28352.943,6.00,2835.294,1,6,0.100,34505.000,0.200,22595.000,0.300,4715.000,0.500,619.000,1.000,407.000,5.000,1.000
"07/01/06","00:14:10","AMMA06",63053.000,"cc",28309.541,6.00,2830.954,1,6,0.100,34935.000,0.200,22414.000,0.300,4649.000,0.500,634.000,1.000,420.000,5.000,1.000